| time (UTC) | temp F | wind direction | speed MPH | gust MPH | rain 1hr in | rain 24hr in | rain mn in | humidity % | barometer mb |
| 20260505062508 | 59 | 192 | 3.0 | 5.0 | 0.00 | 0.00 | 0.00 | 69 | 1016.3 |
| 20260505062006 | 59 | 171 | 2.0 | 4.0 | 0.00 | 0.00 | 0.00 | 70 | 1016.3 |
| 20260505061521 | 60 | 217 | 2.0 | 4.0 | 0.00 | 0.00 | 0.00 | 69 | 1016.2 |
| 20260505061003 | 60 | 166 | 1.0 | 4.0 | 0.00 | 0.00 | 0.00 | 69 | 1016.2 |
| 20260505060504 | 60 | 259 | 1.0 | 4.0 | 0.00 | 0.00 | 0.00 | 69 | 1016.3 |
| 20260505060004 | 60 | 162 | 1.0 | 4.0 | 0.00 | 0.00 | 0.00 | 68 | 1016.2 |
| 20260505055505 | 60 | 191 | 2.0 | 5.0 | 0.00 | 0.00 | 0.00 | 68 | 1016.3 |
| 20260505055003 | 61 | 238 | 2.0 | 5.0 | 0.00 | 0.00 | 0.00 | 67 | 1016.3 |
| 20260505054510 | 61 | 194 | 2.0 | 6.0 | 0.00 | 0.00 | 0.00 | 66 | 1016.4 |
| 20260505054003 | 61 | 195 | 2.0 | 7.0 | 0.00 | 0.00 | 0.00 | 66 | 1016.4 |
| 20260505053504 | 61 | 203 | 2.0 | 7.0 | 0.00 | 0.00 | 0.00 | 65 | 1016.5 |
| 20260505053018 | 61 | 186 | 3.0 | 6.0 | 0.00 | 0.00 | 0.00 | 65 | 1016.5 |
| 20260505052513 | 62 | 169 | 3.0 | 6.0 | 0.00 | 0.00 | 0.00 | 66 | 1016.6 |
| 20260505052007 | 62 | 243 | 3.0 | 6.0 | 0.00 | 0.00 | 0.00 | 64 | 1016.6 |
| 20260505051522 | 62 | 174 | 2.0 | 6.0 | 0.00 | 0.00 | 0.00 | 64 | 1016.7 |
| 20260505051009 | 62 | 197 | 2.0 | 6.0 | 0.00 | 0.00 | 0.00 | 64 | 1016.7 |
| 20260505050511 | 62 | 234 | 2.0 | 6.0 | 0.00 | 0.00 | 0.00 | 65 | 1016.7 |
| 20260505041531 | 63 | 136 | 4.0 | 8.0 | 0.00 | 0.00 | 0.00 | 62 | 1016.8 |
| 20260505041004 | 63 | 222 | 4.0 | 8.0 | 0.00 | 0.00 | 0.00 | 62 | 1016.8 |
| 20260505040507 | 63 | 193 | 3.0 | 8.0 | 0.00 | 0.00 | 0.00 | 62 | 1016.8 |
| 20260505040020 | 64 | 206 | 3.0 | 8.0 | 0.00 | 0.00 | 0.00 | 62 | 1016.7 |
| 20260505035507 | 64 | 160 | 3.0 | 11.0 | 0.00 | 0.00 | 0.00 | 62 | 1016.7 |
| 20260505035008 | 64 | 99 | 4.0 | 11.0 | 0.00 | 0.00 | 0.00 | 64 | 1016.8 |
| 20260505034524 | 63 | 190 | 3.0 | 7.0 | 0.00 | 0.00 | 0.00 | 62 | 1016.8 |
| 20260505034006 | 63 | 187 | 3.0 | 7.0 | 0.00 | 0.00 | 0.00 | 63 | 1016.8 |
| 20260505033507 | 63 | 214 | 3.0 | 5.0 | 0.00 | 0.00 | 0.00 | 63 | 1016.9 |
| 20260505033007 | 63 | 198 | 1.0 | 5.0 | 0.00 | 0.00 | 0.00 | 62 | 1016.8 |
| 20260505032504 | 64 | 129 | 3.0 | 5.0 | 0.00 | 0.00 | 0.00 | 62 | 1016.8 |
| 20260505032005 | 63 | 186 | 3.0 | 5.0 | 0.00 | 0.00 | 0.00 | 62 | 1016.8 |
| 20260505031511 | 64 | 229 | 2.0 | 5.0 | 0.00 | 0.00 | 0.00 | 63 | 1016.8 |
| 20260505031009 | 64 | 231 | 2.0 | 5.0 | 0.00 | 0.00 | 0.00 | 62 | 1016.8 |
| 20260505030504 | 64 | 244 | 3.0 | 5.0 | 0.00 | 0.00 | 0.00 | 61 | 1016.7 |
| 20260505030017 | 64 | 257 | 2.0 | 5.0 | 0.00 | 0.00 | 0.00 | 61 | 1016.7 |
| 20260505025505 | 64 | 191 | 2.0 | 5.0 | 0.00 | 0.00 | 0.00 | 61 | 1016.7 |
| 20260505025007 | 64 | 181 | 2.0 | 5.0 | 0.00 | 0.00 | 0.00 | 60 | 1016.7 |
| 20260505024522 | 64 | 175 | 2.0 | 4.0 | 0.00 | 0.00 | 0.00 | 59 | 1016.7 |
| 20260505024007 | 64 | 134 | 2.0 | 5.0 | 0.00 | 0.00 | 0.00 | 59 | 1016.7 |
| 20260505023507 | 65 | 141 | 2.0 | 6.0 | 0.00 | 0.00 | 0.00 | 58 | 1016.7 |
| 20260505023033 | 65 | 176 | 1.0 | 6.0 | 0.00 | 0.00 | 0.00 | 57 | 1016.7 |
| 20260505022504 | 65 | 202 | 2.0 | 4.0 | 0.00 | 0.00 | 0.00 | 55 | 1016.6 |
| 20260505022004 | 65 | 153 | 2.0 | 5.0 | 0.00 | 0.00 | 0.00 | 55 | 1016.6 |
| 20260505021509 | 65 | 191 | 2.0 | 6.0 | 0.00 | 0.00 | 0.00 | 54 | 1016.5 |
| 20260505021006 | 65 | 209 | 2.0 | 6.0 | 0.00 | 0.00 | 0.00 | 52 | 1016.5 |
| 20260505020503 | 65 | 197 | 2.0 | 6.0 | 0.00 | 0.00 | 0.00 | 51 | 1016.5 |
| 20260505020018 | 65 | 186 | 2.0 | 5.0 | 0.00 | 0.00 | 0.00 | 49 | 1016.4 |
| 20260505015507 | 66 | 167 | 2.0 | 3.0 | 0.00 | 0.00 | 0.00 | 47 | 1016.3 |
| 20260505015005 | 66 | 210 | 1.0 | 4.0 | 0.00 | 0.00 | 0.00 | 47 | 1016.2 |
| 20260505014518 | 66 | 234 | 1.0 | 4.0 | 0.00 | 0.00 | 0.00 | 47 | 1016.3 |
| 20260505014008 | 66 | 174 | 1.0 | 2.0 | 0.00 | 0.00 | 0.00 | 47 | 1016.1 |
| 20260505013507 | 66 | 207 | 1.0 | 3.0 | 0.00 | 0.00 | 0.00 | 46 | 1016.0 |
| 20260505013025 | 66 | 193 | 1.0 | 3.0 | 0.00 | 0.00 | 0.00 | 46 | 1016.0 |
| 20260505012512 | 67 | 219 | 1.0 | 2.0 | 0.00 | 0.00 | 0.00 | 45 | 1015.9 |
| 20260505012011 | 67 | 172 | 1.0 | 2.0 | 0.00 | 0.00 | 0.00 | 45 | 1015.8 |
| 20260505011530 | 67 | 214 | 0.0 | 3.0 | 0.00 | 0.00 | 0.00 | 45 | 1015.7 |
| 20260505011004 | 67 | 193 | 1.0 | 3.0 | 0.00 | 0.00 | 0.00 | 45 | 1015.7 |
| 20260505010504 | 68 | 212 | 1.0 | 2.0 | 0.00 | 0.00 | 0.00 | 44 | 1015.6 |
| 20260505010010 | 68 | 248 | 1.0 | 2.0 | 0.00 | 0.00 | 0.00 | 43 | 1015.6 |
| 20260505005504 | 68 | 203 | 1.0 | 2.0 | 0.00 | 0.00 | 0.00 | 43 | 1015.5 |
| 20260505005006 | 69 | 200 | 1.0 | 2.0 | 0.00 | 0.00 | 0.00 | 42 | 1015.5 |
| 20260505004527 | 69 | 197 | 0.0 | 2.0 | 0.00 | 0.00 | 0.00 | 42 | 1015.4 |
| 20260505004004 | 69 | 219 | 0.0 | 2.0 | 0.00 | 0.00 | 0.00 | 42 | 1015.4 |
| 20260505003506 | 70 | 202 | 1.0 | 3.0 | 0.00 | 0.00 | 0.00 | 41 | 1015.4 |
| 20260505003019 | 70 | 183 | 1.0 | 3.0 | 0.00 | 0.00 | 0.00 | 41 | 1015.3 |
| 20260505002510 | 70 | 191 | 1.0 | 3.0 | 0.00 | 0.00 | 0.00 | 41 | 1015.2 |
| 20260505002008 | 71 | 198 | 1.0 | 3.0 | 0.00 | 0.00 | 0.00 | 41 | 1015.2 |
| 20260505001522 | 71 | 189 | 1.0 | 4.0 | 0.00 | 0.00 | 0.00 | 40 | 1015.2 |
| 20260505001010 | 71 | 190 | 2.0 | 6.0 | 0.00 | 0.00 | 0.00 | 41 | 1015.3 |
| 20260505000509 | 72 | 195 | 1.0 | 6.0 | 0.00 | 0.00 | 0.00 | 40 | 1015.2 |
| 20260505000031 | 72 | 188 | 2.0 | 5.0 | 0.00 | 0.00 | 0.00 | 38 | 1015.2 |
| 20260504235504 | 72 | 170 | 1.0 | 6.0 | 0.00 | 0.00 | 0.00 | 38 | 1015.1 |
| 20260504235005 | 73 | 177 | 2.0 | 6.0 | 0.00 | 0.00 | 0.00 | 39 | 1015.0 |
| 20260504234512 | 73 | 212 | 4.0 | 6.0 | 0.00 | 0.00 | 0.00 | 37 | 1015.0 |
| 20260504234004 | 74 | 186 | 2.0 | 7.0 | 0.00 | 0.00 | 0.00 | 37 | 1014.9 |
| 20260504233508 | 74 | 184 | 3.0 | 9.0 | 0.00 | 0.00 | 0.00 | 35 | 1014.7 |
| 20260504233017 | 74 | 204 | 4.0 | 9.0 | 0.00 | 0.00 | 0.00 | 36 | 1014.6 |
| 20260504232506 | 74 | 176 | 2.0 | 10.0 | 0.00 | 0.00 | 0.00 | 35 | 1014.6 |
| 20260504232011 | 75 | 173 | 3.0 | 10.0 | 0.00 | 0.00 | 0.00 | 36 | 1014.6 |
| 20260504231525 | 75 | 163 | 3.0 | 8.0 | 0.00 | 0.00 | 0.00 | 35 | 1014.5 |
| 20260504231007 | 75 | 195 | 3.0 | 8.0 | 0.00 | 0.00 | 0.00 | 35 | 1014.4 |
| 20260504230507 | 75 | 184 | 3.0 | 8.0 | 0.00 | 0.00 | 0.00 | 33 | 1014.4 |
| 20260504230024 | 76 | 173 | 4.0 | 9.0 | 0.00 | 0.00 | 0.00 | 33 | 1014.5 |
| 20260504225510 | 76 | 188 | 5.0 | 9.0 | 0.00 | 0.00 | 0.00 | 34 | 1014.5 |
| 20260504225008 | 76 | 150 | 4.0 | 10.0 | 0.00 | 0.00 | 0.00 | 31 | 1014.4 |
| 20260504224529 | 77 | 190 | 4.0 | 10.0 | 0.00 | 0.00 | 0.00 | 31 | 1014.4 |
| 20260504224005 | 77 | 175 | 3.0 | 10.0 | 0.00 | 0.00 | 0.00 | 30 | 1014.4 |
| 20260504223505 | 77 | 194 | 3.0 | 8.0 | 0.00 | 0.00 | 0.00 | 32 | 1014.4 |
| 20260504223014 | 77 | 203 | 3.0 | 10.0 | 0.00 | 0.00 | 0.00 | 31 | 1014.4 |
| 20260504222509 | 77 | 164 | 4.0 | 11.0 | 0.00 | 0.00 | 0.00 | 29 | 1014.5 |
| 20260504222009 | 78 | 229 | 7.0 | 11.0 | 0.00 | 0.00 | 0.00 | 29 | 1014.4 |
| 20260504221520 | 78 | 163 | 6.0 | 10.0 | 0.00 | 0.00 | 0.00 | 28 | 1014.4 |
| 20260504221007 | 78 | 189 | 5.0 | 10.0 | 0.00 | 0.00 | 0.00 | 29 | 1014.4 |
| 20260504220507 | 78 | 195 | 4.0 | 11.0 | 0.00 | 0.00 | 0.00 | 28 | 1014.4 |
| 20260504220024 | 79 | 117 | 4.0 | 11.0 | 0.00 | 0.00 | 0.00 | 29 | 1014.4 |
| 20260504215503 | 79 | 181 | 4.0 | 11.0 | 0.00 | 0.00 | 0.00 | 27 | 1014.4 |
| 20260504215004 | 79 | 229 | 3.0 | 10.0 | 0.00 | 0.00 | 0.00 | 27 | 1014.4 |
| 20260504214511 | 79 | 180 | 5.0 | 10.0 | 0.00 | 0.00 | 0.00 | 29 | 1014.4 |
| 20260504214005 | 78 | 227 | 5.0 | 14.0 | 0.00 | 0.00 | 0.00 | 28 | 1014.4 |
| 20260504213504 | 79 | 226 | 4.0 | 14.0 | 0.00 | 0.00 | 0.00 | 30 | 1014.3 |
| 20260504213033 | 79 | 91 | 4.0 | 10.0 | 0.00 | 0.00 | 0.00 | 27 | 1014.3 |
| 20260504212505 | 79 | 242 | 4.0 | 9.0 | 0.00 | 0.00 | 0.00 | 25 | 1014.3 |
| 20260504212009 | 79 | 176 | 3.0 | 11.0 | 0.00 | 0.00 | 0.00 | 30 | 1014.4 |
| 20260504211518 | 79 | 190 | 6.0 | 11.0 | 0.00 | 0.00 | 0.00 | 28 | 1014.3 |
| 20260504211007 | 79 | 222 | 5.0 | 9.0 | 0.00 | 0.00 | 0.00 | 26 | 1014.4 |
| 20260504210508 | 79 | 195 | 3.0 | 12.0 | 0.00 | 0.00 | 0.00 | 25 | 1014.4 |
| 20260504210023 | 79 | 158 | 6.0 | 12.0 | 0.00 | 0.00 | 0.00 | 26 | 1014.6 |
| 20260504205507 | 80 | 203 | 7.0 | 10.0 | 0.00 | 0.00 | 0.00 | 25 | 1014.6 |
| 20260504205007 | 80 | 173 | 2.0 | 12.0 | 0.00 | 0.00 | 0.00 | 25 | 1014.6 |
| 20260504204527 | 79 | 194 | 4.0 | 12.0 | 0.00 | 0.00 | 0.00 | 26 | 1014.6 |
| 20260504204003 | 80 | 240 | 2.0 | 8.0 | 0.00 | 0.00 | 0.00 | 26 | 1014.7 |
| 20260504203508 | 79 | 169 | 4.0 | 8.0 | 0.00 | 0.00 | 0.00 | 28 | 1014.4 |
| 20260504203011 | 79 | 184 | 4.0 | 9.0 | 0.00 | 0.00 | 0.00 | 26 | 1014.6 |
| 20260504202504 | 79 | 221 | 4.0 | 9.0 | 0.00 | 0.00 | 0.00 | 28 | 1014.7 |
| 20260504202005 | 79 | 209 | 6.0 | 9.0 | 0.00 | 0.00 | 0.00 | 27 | 1014.7 |
| 20260504201521 | 80 | 186 | 4.0 | 8.0 | 0.00 | 0.00 | 0.00 | 24 | 1014.7 |
| 20260504201010 | 80 | 147 | 4.0 | 9.0 | 0.00 | 0.00 | 0.00 | 26 | 1014.7 |
| 20260504200507 | 80 | 181 | 5.0 | 9.0 | 0.00 | 0.00 | 0.00 | 23 | 1014.8 |
| 20260504200019 | 79 | 259 | 5.0 | 8.0 | 0.00 | 0.00 | 0.00 | 25 | 1014.9 |
| 20260504195506 | 79 | 217 | 3.0 | 10.0 | 0.00 | 0.00 | 0.00 | 27 | 1015.0 |
| 20260504195011 | 79 | 246 | 4.0 | 10.0 | 0.00 | 0.00 | 0.00 | 27 | 1015.1 |
| 20260504194522 | 80 | 229 | 3.0 | 11.0 | 0.00 | 0.00 | 0.00 | 30 | 1015.1 |
| 20260504194008 | 80 | 37 | 6.0 | 11.0 | 0.00 | 0.00 | 0.00 | 26 | 1015.1 |
| 20260504193508 | 81 | 172 | 2.0 | 9.0 | 0.00 | 0.00 | 0.00 | 26 | 1015.1 |
| 20260504193025 | 81 | 112 | 3.0 | 8.0 | 0.00 | 0.00 | 0.00 | 25 | 1015.2 |
| 20260504192503 | 80 | 117 | 2.0 | 11.0 | 0.00 | 0.00 | 0.00 | 25 | 1015.2 |
| 20260504192004 | 80 | 176 | 2.0 | 11.0 | 0.00 | 0.00 | 0.00 | 25 | 1015.3 |
| 20260504191507 | 80 | 168 | 3.0 | 8.0 | 0.00 | 0.00 | 0.00 | 25 | 1015.2 |
| 20260504191003 | 80 | 188 | 3.0 | 12.0 | 0.00 | 0.00 | 0.00 | 25 | 1015.4 |
| 20260504190504 | 80 | 180 | 6.0 | 12.0 | 0.00 | 0.00 | 0.00 | 25 | 1015.4 |
| 20260504190014 | 80 | 173 | 4.0 | 7.0 | 0.00 | 0.00 | 0.00 | 25 | 1015.4 |
| 20260504185510 | 80 | 186 | 2.0 | 7.0 | 0.00 | 0.00 | 0.00 | 26 | 1015.5 |
| 20260504185011 | 80 | 180 | 2.0 | 7.0 | 0.00 | 0.00 | 0.00 | 28 | 1015.6 |
| 20260504184518 | 79 | 231 | 3.0 | 6.0 | 0.00 | 0.00 | 0.00 | 29 | 1015.8 |
| 20260504184007 | 80 | 58 | 1.0 | 5.0 | 0.00 | 0.00 | 0.00 | 28 | 1015.8 |
| 20260504183511 | 80 | 195 | 3.0 | 5.0 | 0.00 | 0.00 | 0.00 | 27 | 1015.8 |
| 20260504183024 | 80 | 171 | 2.0 | 6.0 | 0.00 | 0.00 | 0.00 | 24 | 1015.8 |
| 20260504182509 | 79 | 199 | 4.0 | 6.0 | 0.00 | 0.00 | 0.00 | 26 | 1015.8 |
| 20260504182010 | 79 | 171 | 2.0 | 11.0 | 0.00 | 0.00 | 0.00 | 30 | 1015.8 |
| 20260504181527 | 79 | 139 | 2.0 | 11.0 | 0.00 | 0.00 | 0.00 | 27 | 1015.9 |
| 20260504181010 | 78 | 197 | 5.0 | 11.0 | 0.00 | 0.00 | 0.00 | 25 | 1015.9 |
| 20260504180504 | 79 | 181 | 5.0 | 9.0 | 0.00 | 0.00 | 0.00 | 26 | 1015.8 |
| 20260504180010 | 79 | 198 | 2.0 | 6.0 | 0.00 | 0.00 | 0.00 | 27 | 1015.9 |
| 20260504175505 | 80 | 85 | 1.0 | 6.0 | 0.00 | 0.00 | 0.00 | 27 | 1016.1 |
| 20260504175009 | 79 | 326 | 2.0 | 5.0 | 0.00 | 0.00 | 0.00 | 29 | 1016.2 |
| 20260504174519 | 79 | 160 | 2.0 | 8.0 | 0.00 | 0.00 | 0.00 | 32 | 1016.3 |
| 20260504174009 | 78 | 204 | 3.0 | 8.0 | 0.00 | 0.00 | 0.00 | 29 | 1016.3 |
| 20260504173513 | 78 | 127 | 2.0 | 10.0 | 0.00 | 0.00 | 0.00 | 32 | 1016.3 |
| 20260504173033 | 79 | 195 | 5.0 | 10.0 | 0.00 | 0.00 | 0.00 | 28 | 1016.3 |
| 20260504172508 | 79 | 150 | 1.0 | 5.0 | 0.00 | 0.00 | 0.00 | 33 | 1016.4 |
| 20260504172009 | 78 | 217 | 2.0 | 9.0 | 0.00 | 0.00 | 0.00 | 32 | 1016.5 |
| 20260504171525 | 78 | 264 | 3.0 | 9.0 | 0.00 | 0.00 | 0.00 | 31 | 1016.6 |
| 20260504171009 | 78 | 175 | 2.0 | 6.0 | 0.00 | 0.00 | 0.00 | 30 | 1016.6 |
| 20260504170509 | 78 | 143 | 2.0 | 8.0 | 0.00 | 0.00 | 0.00 | 30 | 1016.7 |
| 20260504151013 | 76 | 27 | 1.0 | 5.0 | 0.00 | 0.00 | 0.00 | 38 | 1018.0 |
| 20260504150511 | 75 | 211 | 2.0 | 5.0 | 0.00 | 0.00 | 0.00 | 35 | 1018.0 |
| 20260504141008 | 69 | 116 | 3.0 | 5.0 | 0.00 | 0.00 | 0.00 | 48 | 1018.2 |
| 20260504140508 | 69 | 105 | 1.0 | 4.0 | 0.00 | 0.00 | 0.00 | 51 | 1018.2 |
| 20260504130504 | 62 | 168 | 3.0 | 5.0 | 0.00 | 0.00 | 0.00 | 64 | 1018.0 |
| 20260504110503 | 49 | 239 | 0.0 | 1.0 | 0.00 | 0.00 | 0.00 | 88 | 1018.0 |
| 20260504100504 | 45 | 239 | 0.0 | 1.0 | 0.00 | 0.00 | 0.00 | 92 | 1018.1 |
| 20260504082003 | 48 | 212 | 1.0 | 2.0 | 0.00 | 0.00 | 0.00 | 89 | 1018.0 |
| 20260504081515 | 47 | 225 | 1.0 | 2.0 | 0.00 | 0.00 | 0.00 | 90 | 1018.1 |
| 20260504081004 | 47 | 236 | 1.0 | 1.0 | 0.00 | 0.00 | 0.00 | 90 | 1018.0 |
| 20260504080503 | 46 | 226 | 1.0 | 1.0 | 0.00 | 0.00 | 0.00 | 90 | 1017.9 |